Hourly Data Report for January 01, 2004

All times are specified in Local Standard Time (LST). Add 1 hour to adjust for Daylight Saving Time where and when it is observed.

SHERBROOKE A
QUEBEC

45°26'00.000" N
71°41'00.000" W
241.40 m
7028124
71610
YSC

Download Data

Hourly Data (January 2004)
Hourly Data Report for January 1, 2004
TIME Temp Definition
°C
Dew Point Temp Definition
°C
Rel Hum Definition
%
Wind Dir Definition
10's deg

Wind Spd Definition
km/h
Visibility Definition
km
Stn Press Definition
kPa
Hmdx Definition


Wind Chill Definition


Weather Definition


00:00 -0.7 -3.1 84 26 24 5.6 98.06   -7 Snow
01:00 -0.9 -2.9 86 27 30 1.3 98.18   -8 Snow
02:00 -1.3 -3.9 82 27 26 4.8 98.32   -8 Snow
03:00 -1.6 -4.4 81 27 17 3.9 98.41   -7 Snow
04:00 -0.9 -4.9 74 27 20 15.0 98.48   -6 Snow
05:00 -1.2 -5.0 75 27 20 15.0 98.58   -7 Snow
06:00 -1.4 -4.6 79 26 15 5.6 98.71   -6 Snow
07:00 -1.6 -3.9 84 27 19 2.3 98.82   -7 Snow
08:00 -1.9 -3.7 87 29 13 1.6 98.99   -6 Snow
09:00 -3.3 -5.8 83 31 9 2.4 99.16   -7 Snow
10:00 -3.9 -7.1 78 31 13 8.0 99.26   -9 Snow Showers
11:00 -4.4 -7.6 78 29 15 16.1 99.27   -10 Snow Showers
12:00 -3.9 -8.2 72 29 17 24.1 99.25   -10 Mostly Cloudy
13:00 -3.7 -8.3 70 30 22 24.1 99.30   -10 Mostly Cloudy
14:00 -4.2 -8.7 71 30 15 24.1 99.38   -10 Mostly Cloudy
15:00 -3.9 -8.5 70 30 11 24.1 99.46   -8 Mostly Cloudy
16:00 -4.2 -8.6 71 30 15 24.1 99.49   -10 Mostly Cloudy
17:00 -7.1 -9.8 81 28 6 24.1 99.54   -10 Mainly Clear
18:00 -5.4 -8.4 79 25 6 15.0 99.56   -8  
19:00 -5.3 -8.2 80 28 9 15.0 99.63   -9  
20:00 -5.0 -8.0 79 30 7 15.0 99.63   -8 Snow
21:00 -5.6 -9.5 74 32 4 15.0 99.66   -7  
22:00 -6.2 -9.8 76 30 6 15.0 99.69   -9  
23:00 -6.5 -10.0 76 30 4 15.0 99.67   -8 Snow

Notes on Data Quality.

Legend

  • E = Estimated
  • M = Missing
  • NA = Not Available
Date modified: